Regional Weather Roundup
Issued by NWS

Home | Current Version | Previous Version | Text Only | Print | Product List | Glossary Off
Versions: 1 2 3 4 5 6 7 8 9 10 11 12 13 14 15 16 17 18 19 20 21 22 23 24 25 26 27

000
ASUS45 KSLC 261110
RWRUT

UTAH REGIONAL WEATHER ROUNDUP
NATIONAL WEATHER SERVICE SALT LAKE CITY UT
500 AM MDT WED APR 26 2017

UTZ001>011-023>025-261200-

NORTHERN UTAH

CITY           SKY/WX    TMP DP  RH WIND       PRES   REMARKS
BRIGHAM CITY   CLOUDY    48  33  56 S5        29.88S
HILL AFB       CLOUDY    44  33  65 S13       29.88F
LOGAN          CLOUDY    41  37  86 CALM      29.87F
OGDEN          CLOUDY    41  33  73 S12       29.88F
SALT LAKE CITY PTCLDY    43  35  73 E8        29.90S
TOOELE VALLEY  CLEAR     36  32  87 S8        29.91S WCI  29
WENDOVER       CLOUDY    48  28  46 NW7       29.89F
HEBER CITY     CLEAR     27  27 100 E3        29.92S
WEST JORDAN    PTCLDY    43  39  86 SW8       29.91S

$$

UTZ011>015-024>027-261200-

CENTRAL/NORTHEAST UTAH

CITY           SKY/WX    TMP DP  RH WIND       PRES   REMARKS
PROVO AIRPORT  CLEAR     34  30  85 E8        29.94S WCI  27
MOAB/CANYONLAN CLOUDY    38  31  76 N3        29.90R
DELTA          PTCLDY    32  30  93 E3        29.93S
PRICE          PTCLDY    35  25  66 NE5       29.91S WCI  31
RICHFIELD      CLEAR     27  27 100 CALM      29.98F
ROOSEVELT      CLOUDY    32  27  80 SW7       29.92S WCI  26
VERNAL         CLOUDY    36  31  82 CALM      29.90S

$$

UTZ013>016-019>022-027-261200-

SOUTHERN UTAH

CITY           SKY/WX    TMP DP  RH WIND       PRES   REMARKS
BRYCE CANYON   PTCLDY    22  16  78 W9        29.98F WCI  12
CEDAR CITY     CLEAR     27  21  78 S5        29.95S WCI  22
MILFORD        PTCLDY    31  24  75 SW8       29.94S WCI  23
ST GEORGE      SUNNY     47  21  35 E7        29.93S
HANKSVILLE     PTCLDY    34  21  60 CALM      29.94S
KANAB          CLEAR     34  21  60 N5        30.00S WCI  30
BLANDING       CLEAR     37  21  53 NW3       29.97S

$$

REGIONAL REPORTS     COLORADO/ARIZONA

CITY           SKY/WX    TMP DP  RH WIND       PRES   REMARKS
CRAIG, CO      MIX PCPN  32  27  81 E3        29.91S
GRAND JUNCTION CLOUDY    36  35  96 NE6       29.91F WCI  31
RIFLE, CO      CLOUDY    34  30  85 SE5       29.92F WCI  30
MONTROSE, CO   MOCLDY    36  32  85 CALM      29.94S
CORTEZ, CO     CLEAR     27  24  89 CALM      29.92R
COLORADO CITY    N/A     28  21  74 SE7       29.99S WCI  21
PAGE, AZ       CLEAR     46  22  38 CALM      29.92R
GRAND CANYON   CLEAR     22  13  68 CALM      29.98S
KINGMAN, AZ    PTCLDY    41  19  41 SE3       29.92S
FLAGSTAFF, AZ  CLEAR     25  15  66 CALM      29.98R

$$

REGIONAL REPORTS    NEVADA/IDAHO/WYOMING

CITY           SKY/WX    TMP DP  RH WIND       PRES   REMARKS
LAS VEGAS, NV  MOCLDY    60  17  18 S6        29.87S
ELY, NY        MOCLDY    29  22  75 S7        29.97S WCI  22
ELKO, NV       CLOUDY    45  32  60 SW8       29.93S
POCATELLO, ID  CLOUDY    43  32  65 SW12      29.86S
BURLEY, ID     CLOUDY    44  32  62 W5        29.85F
FORT BRIDGER,    N/A     33  28  80 SW15      29.92S WCI  23
EVANSTON, WY   CLOUDY    31  28  89 SW10      29.89F WCI  22
ROCK SPRINGS,  CLOUDY    34  29  82 SW8       29.87F WCI  27
KEMMERER, WY   FLURRIES  32  28  86 CALM      29.89F

$$




USA.gov is the U.S. government's official web portal to all federal, state and local government web resources and services.